Regional Weather Roundup
Issued by NWS

Home | Current Version | Previous Version | Graphics & Text | Print | Product List | Glossary On
Versions: 1 2 3 4 5 6 7 8 9 10 11 12 13 14 15 16 17 18 19 20 21 22 23 24 25 26 27 28 29 30 31 32 33 34 35 36 37 38 39 40 41 42 43 44 45 46 47 48 49 50
526
ASUS45 KABQ 030501
RWRNM
NEW MEXICO REGIONAL WEATHER ROUNDUP
NATIONAL WEATHER SERVICE ALBUQUERQUE NM
1000 PM MST FRI DEC 02 2016

NOTE: "FAIR" MEANS FEW OR NO CLOUDS BELOW 12,000 FEET AGL WITH NO
       SIGNIFICANT WEATHER OR OBSTRUCTIONS TO VISION.

      THIS PRODUCT IS RELEASED AS TWO VERSIONS.  ONE VERSION NEAR
      THE TOP OF THE HOUR CONTAINING PRELIMINARY DATA FROM ALBUQUERQUE
      AND OTHER STATIONS.  A FINAL VERSION WITH ADDITIONAL DATA IS
      ISSUED ABOUT 10 MINUTES AFTER THE HOUR.

NMZ501-503-504-510>518-030600-
NORTHWEST PLATEAU/NORTHCENTRAL MOUNTAINS

CITY           SKY/WX    TMP DP  RH WIND       PRES   REMARKS
FARMINGTON     MOCLDY    32  29  88 CALM      30.08R
LOS ALAMOS     CLOUDY    32  26  80 S6        30.10S WCI  26
SANTA FE       CLOUDY    32  24  72 S5        30.09S WCI  27
TAOS           CLOUDY    25  12  58 N9        30.11S WCI  15
ANGEL FIRE     FLURRIES  20  18  93 CALM      30.13S

$$
NMZ402-403-502-505>509-030600-
WESTCENTRAL MOUNTAINS/SOUTHWEST MOUNTAINS

CITY           SKY/WX    TMP DP  RH WIND       PRES   REMARKS
GALLUP         FAIR      31  18  58 E15G25    30.05R WCI  20
GRANTS         FAIR      29  21  73 S6        30.06S WCI  23
SILVER CITY    LGT RAIN  38  36  92 NE9       29.94F WCI  32

$$
NMZ407-409-411-412-030600-
SOUTHERN DESERTS

CITY           SKY/WX    TMP DP  RH WIND       PRES   REMARKS
DEMING         MOCLDY    43  39  86 N13G22    29.90F
LAS CRUCES     CLOUDY    48  35  59 SE10      29.95S
HOLLOMAN AFB   DRIZZLE   48  30  49 W15       29.99R
T OR C         CLOUDY    42  30  62 N21G28    29.98R

$$
NMZ519>523-030600-
CENTRAL VALLEYS/CENTRAL HIGHLANDS

CITY           SKY/WX    TMP DP  RH WIND       PRES   REMARKS
ALBUQUERQUE    MOCLDY    36  23  59 E23G35    30.06R WCI  24
DOUBLE EAGLE   MOCLDY    30  21  69 NW6       30.07R WCI  24
MORIARTY ARPT  CLOUDY    30  22  70 E13       30.14R WCI  20
CLINES CORNERS CLOUDY    24  22  91 E15G24    30.12R FOG     WCI  11
BELEN          CLOUDY    36  21  54 NW9       30.05S WCI  29
SOCORRO        CLOUDY    39  24  53 NE3       30.05R

$$
NMZ524>526-539-540-030600-
SOUTHCENTRAL MOUNTAINS

CITY           SKY/WX    TMP DP  RH WIND       PRES   REMARKS
RUIDOSO        CLOUDY    28  25  86 SE9       30.08S WCI  20

$$
NMZ527>531-030600-
NORTHEAST HIGHLANDS/NORTHEAST PLAINS

CITY           SKY/WX    TMP DP  RH WIND       PRES   REMARKS
LAS VEGAS      LGT SNOW  24  22  91 NE13      30.15F FOG     WCI  12
RATON          LGT SNOW  26  23  88 E6        30.18S FOG     WCI  19
CLAYTON        CLOUDY    35  20  54 NE7       30.21  WCI  29

$$
NMZ532>537-030600-
EASTCENTRAL PLAINS

CITY           SKY/WX    TMP DP  RH WIND       PRES   REMARKS
TUCUMCARI      CLOUDY    36  29  75 NE16      30.17R WCI  26
CANNON AFB     NOT AVBL
CLOVIS AIRPORT CLOUDY    36  32  87 NE18G24   30.11F WCI  25

$$
NMZ028-029-538-030600-
SOUTHEAST PLAINS

CITY           SKY/WX    TMP DP  RH WIND       PRES   REMARKS
ROSWELL        CLOUDY    44  32  62 NE14      30.09S
ARTESIA        DRIZZLE   43  43 100 NE12      30.08F
CARLSBAD       RAIN      44  44 100 N10       30.06R
HOBBS          LGT RAIN  39  39 100 N12       30.07S WCI  32


$$




USA.gov is the U.S. government's official web portal to all federal, state and local government web resources and services.